Regional Weather Roundup
Issued by NWS

Home | Current Version | Previous Version | Graphics & Text | Print | Product List | Glossary On
Versions: 1 2 3 4 5 6 7 8 9 10 11 12 13 14 15 16 17 18 19 20 21 22 23 24 25 26 27 28 29 30 31 32 33 34 35 36 37 38 39 40 41 42 43 44 45 46 47 48 49 50
000
ASUS43 KOAX 162202
RWRNE

WEATHER ROUNDUP FOR NEBRASKA
NATIONAL WEATHER SERVICE OMAHA NE
500 PM CDT WED AUG 16 2017

NOTES: SATELLITE DATA IS BEING USED TO AUGMENT CLOUD COVER ABOVE
       12000 FEET.
       "FAIR" INDICATES FEW OR NO CLOUDS BELOW 12,000 FEET WITH NO
       SIGNIFICANT WEATHER AND/OR OBSTRUCTIONS TO VISIBILITY.


NEZ001>004-019>022-054>056-162300-
NEBRASKA PANHANDLE

CITY           SKY/WX    TMP DP  RH WIND       PRES   REMARKS
SCOTTSBLUFF    MOSUNNY   76  46  34 N10       30.04S
ALLIANCE       MOSUNNY   74  50  42 NW13G23   30.04R
CHADRON        SUNNY     79  45  29 N9        30.01S
GORDON         FAIR      74  52  46 N13       30.01R
KIMBALL        PTSUNNY   73  46  37 N13G18    30.10S
SIDNEY         MOSUNNY   76  52  43 N14G21    30.07R
$$

NEZ057>060-069>072-079>082-162300-
SOUTHWEST NEBRASKA

CITY           SKY/WX    TMP DP  RH WIND       PRES   REMARKS
NORTH PLATTE   CLOUDY    71  62  73 N13       29.97S
IMPERIAL       CLOUDY    78  54  43 N17       30.00R
LEXINGTON      RAIN      71  61  69 N9        29.93R
MCCOOK         CLOUDY    73  66  78 N16G25    29.95R
OGALLALA       PTSUNNY   73  58  60 N8G16     30.00S
$$

NEZ005>010-023>029-035>040-094-162300-
NORTH CENTRAL NEBRASKA

CITY           SKY/WX    TMP DP  RH WIND       PRES   REMARKS
VALENTINE      CLOUDY    73  58  59 N13       29.95S
AINSWORTH      CLOUDY    66  60  83 NW16G22   29.95R
BROKEN BOW     LGT RAIN  66  63  90 N9        29.92F
O`NEILL        CLOUDY    65  64  96 NW13      29.86F
ORD            LGT RAIN  68  64  87 NW10G21   29.88R
THEDFORD       CLOUDY    68  60  75 N10       29.97F
$$

NEZ041-046>049-061>064-073>077-083>087-162300-
SOUTH CENTRAL NEBRASKA

CITY           SKY/WX    TMP DP  RH WIND       PRES   REMARKS
GRAND ISLAND   CLOUDY    76  65  68 NW16G24   29.85R
AURORA         SUNNY     78  63  59 NW12      29.83S
HASTINGS       SUNNY     79  63  57 W15       29.87R
HEBRON         MOSUNNY   82  64  54 NW12G18   29.84R
HOLDREGE       MOSUNNY   76  60  56 W10       29.90R
KEARNEY        CLOUDY    75  62  64 N31G39    29.89R
YORK           PTSUNNY   75  66  73 W8        29.82S
$$

NEZ011>018-030>034-042>045-162300-
NORTHEAST NEBRASKA

CITY           SKY/WX    TMP DP  RH WIND       PRES   REMARKS
NORFOLK        CLOUDY    72  63  73 NW12      29.80R
ALBION         LGT RAIN  71  64  77 N12G22    29.84R
BLAIR          CLOUDY    77  67  72 W14G20    29.78R
COLUMBUS       MOSUNNY   76  68  76 NW10      29.82R
FREMONT        PTSUNNY   76  66  73 NW15G22   29.79R
TEKAMAH        PTSUNNY   76  66  71 W10G21    29.75R
WAYNE          CLOUDY    72  69  89 NW10G17   29.78S
$$

NEZ050>053-065>068-078-088>093-162300-
SOUTHEAST NEBRASKA

CITY           SKY/WX    TMP DP  RH WIND       PRES   REMARKS
LINCOLN        PTSUNNY   81  65  58 NW10      29.80R
OMAHA EPPLEY   PTSUNNY   81  64  56 W16       29.76R
BEATRICE       MOSUNNY   82  64  54 W12       29.82R
FALLS CITY     PTSUNNY   83  66  56 SW10      29.79S
NEBRASKA CITY  PTSUNNY   82  67  61 W12G17    29.80R
PLATTSMOUTH    MOSUNNY   81  64  57 W13       29.79R
$$

NEZ044-045-051>053-067-162300-
OMAHA AREA

CITY           SKY/WX    TMP DP  RH WIND       PRES   REMARKS
OMAHA EPPLEY   PTSUNNY   81  64  56 W16       29.76R
BLAIR          CLOUDY    77  67  72 W14G20    29.78R
FREMONT        PTSUNNY   76  66  73 NW15G22   29.79R
MILLARD        CLOUDY    81  67  64 W13       29.77S
OFFUTT AFB     PTSUNNY   82  64  54 W14G21    29.77R
PLATTSMOUTH    MOSUNNY   81  64  57 W13       29.79R
WAHOO          FAIR      77  67  70 NW14G21   29.79R
$$



USA.gov is the U.S. government's official web portal to all federal, state and local government web resources and services.